Regional Weather Roundup
Issued by NWS

Home | Current Version | Previous Version | Graphics & Text | Print | Product List | Glossary On
Versions: 1 2 3 4 5 6 7 8 9 10 11 12 13 14 15 16 17 18 19 20 21 22 23 24 25 26 27 28 29 30 31 32 33 34 35 36 37 38 39 40 41 42 43 44 45 46 47 48 49 50
000
ASUS45 KCYS 311210
RWRWY

WYOMING REGIONAL WEATHER ROUNDUP
NATIONAL WEATHER SERVICE CHEYENNE WY
600 AM MDT THU JUL 31 2014

NOTE:  "FAIR" INDICATES FEW OR NO CLOUDS BELOW 12,000 FEET
WITH NO SIGNIFICANT WEATHER AND/OR OBSTRUCTIONS TO VISIBILITY.

WYZ001-311300-
YELLOWSTONE NATIONAL PARK

CITY           SKY/WX    TMP DP  RH WIND       PRES   REMARKS
LK YELLOWSTONE   N/A     40  37  89 CALM      30.47S
6HR MIN TEMP:  39; 6HR MAX TEMP:  48;

W YELLOWSTONE  NOT AVBL

$$
WYZ002>013-054>058-071-098>099-311300-
NORTHERN WYOMING

CITY           SKY/WX    TMP DP  RH WIND       PRES   REMARKS
JACKSON        CLEAR     43  37  81 CALM      30.39S
CODY           NOT AVBL
GREYBULL       CLEAR     58  41  53 CALM      30.19R
6HR MIN TEMP:  58; 6HR MAX TEMP:  70;

WORLAND        CLEAR     54  43  66 CALM      30.20S
6HR MIN TEMP:  53; 6HR MAX TEMP:  65;

SHERIDAN       PTCLDY    48  42  80 CALM      30.18S
6HR MIN TEMP:  48; 6HR MAX TEMP:  60;

BUFFALO        CLEAR     60  35  39 SW6       30.26S
6HR MIN TEMP:  58; 6HR MAX TEMP:  65;

GILLETTE       CLEAR     57  43  59 VRB6      30.22S
6HR MIN TEMP:  52; 6HR MAX TEMP:  61;

HULETT         FAIR      52  45  76 MISG      30.23
NEWCASTLE      FAIR      52  39  62 N5        30.24

$$
WYZ014>020-022>026-101>103-311300-
CENTRAL WYOMING

CITY           SKY/WX    TMP DP  RH WIND       PRES   REMARKS
BIG PINEY      CLEAR     41  39  93 NE5       30.41R
6HR MIN TEMP:  40; 6HR MAX TEMP:  49;

PINEDALE       SUNNY     37  37 100 NW3       30.42R
DUBOIS         FAIR      41  32  70 NW10      30.40S
LANDER         CLEAR     56  43  61 S3        30.30R
6HR MIN TEMP:  53; 6HR MAX TEMP:  63;

RIVERTON       CLEAR     53  40  61 W9        30.30R
6HR MIN TEMP:  53; 6HR MAX TEMP:  62;

CASPER         CLEAR     45  42  89 NE5       30.29R
6HR MIN TEMP:  45; 6HR MAX TEMP:  60;

DOUGLAS        CLEAR     50  45  83 N7        30.28S
6HR MIN TEMP:  50; 6HR MAX TEMP:  62;


$$
WYZ021-027>030-104>119-311300-
SOUTHERN WYOMING

CITY           SKY/WX    TMP DP  RH WIND       PRES   REMARKS
EVANSTON       PTCLDY    51  46  83 NE7       30.37R
6HR MIN TEMP:  51; 6HR MAX TEMP:  57;

KEMMERER       SUNNY     45  43  93 N13       30.40R
FORT BRIDGER     N/A     49  49  97 S8        30.40S
ROCK SPRINGS   CLEAR     51  43  74 NW5       30.36R
6HR MIN TEMP:  49; 6HR MAX TEMP:  56;

DIXON          FAIR      49  44  83 E3        30.34S
RAWLINS        CLEAR     45  43  93 CALM      30.36R
6HR MIN TEMP:  45; 6HR MAX TEMP:  55;

SARATOGA       FAIR      43  41  93 E3        30.38R
LARAMIE        FOG       44  43  96 W5        30.38R VSB 1/4
6HR MIN TEMP:  42; 6HR MAX TEMP:  54;

CHEYENNE       CLEAR     50  44  80 W9        30.32R
6HR MIN TEMP:  50; 6HR MAX TEMP:  58;

TORRINGTON     CLEAR     54  53  97 W5        30.21F
6HR MIN TEMP:  53; 6HR MAX TEMP:  64;

PINE BLUFFS    FAIR      48  46  93 SW3       30.28S

$$



USA.gov is the U.S. government's official web portal to all federal, state and local government web resources and services.